"Period start","avg(HW err(1)/warn(2) (#))","avg(Visibility (m))","avg(Weather code (#))","avg(Precip intensity (mm/h))","min(HW err(1)/warn(2) (#))","max(HW err(1)/warn(2) (#))","std(HW err(1)/warn(2) (#))","med(HW err(1)/warn(2) (#))","min(Visibility (m))","max(Visibility (m))","std(Visibility (m))","med(Visibility (m))","min(Weather code (#))","max(Weather code (#))","std(Weather code (#))","med(Weather code (#))","min(Precip intensity (mm/h))","max(Precip intensity (mm/h))","std(Precip intensity (mm/h))","med(Precip intensity (mm/h))"
2013-07-07 07:40:00,3,3766,64,3.50,2,9,2,2,4,5016,1531,4660,61,67,3,67,1.35,5.65,1.44,3.15
2013-07-07 07:50:00,2,4055,61,2.83,2,3,0,2,4,5223,1412,4601,61,61,0,61,1.30,4.15,0.93,2.75
2013-07-07 08:00:00,3,2627,64,2.79,2,6,2,2,4,5653,1636,2488,61,71,4,61,0.85,4.40,1.02,2.60
2013-07-07 08:10:00,3,1678,67,7.69,2,9,3,2,4,2674,934,2018,67,68,0,67,2.00,20.50,6.58,5.55
2013-07-07 08:20:00,2,2441,67,3.11,1,2,0,2,4,3973,1079,2306,67,67,0,67,1.75,4.95,1.03,2.88
2013-07-07 08:30:00,2,5582,61,5.96,2,2,0,2,4618,6657,682,5466,61,62,0,61,2.85,15.50,3.38,5.30
2013-07-07 08:40:00,3,3578,63,5.68,2,8,2,2,5,7065,2231,3728,61,67,3,61,2.50,7.75,1.84,6.38
2013-07-07 08:50:00,4,1599,69,3.86,2,9,3,2,5,3032,1108,1900,67,71,2,71,0.95,7.90,2.60,3.00
2013-07-07 09:00:00,2,2791,67,6.79,2,2,0,2,2071,3643,552,2758,67,68,0,67,2.70,15.15,3.54,6.80
2013-07-07 09:10:00,2,4682,62,5.41,2,2,0,2,4019,5439,417,4602,61,67,2,61,3.15,7.80,1.41,5.40
2013-07-07 09:20:00,2,5068,61,5.44,2,2,0,2,3088,6184,972,5246,61,62,0,61,2.90,11.70,2.43,4.62
2013-07-07 09:30:00,2,4675,65,1.61,2,2,0,2,3229,6430,1089,4514,61,67,3,67,0.15,4.10,1.42,0.88
2013-07-07 09:40:00,2,3226,67,1.10,2,2,0,2,2379,4627,607,3092,67,67,0,67,0.20,2.85,0.91,0.85
2013-07-07 09:50:00,2,1900,68,2.46,2,2,0,2,1126,2857,594,1884,67,71,2,67,0.45,6.15,1.75,1.70
2013-07-07 10:00:00,2,1811,69,3.02,2,2,0,2,1198,2622,408,1824,67,71,2,69,1.10,6.75,1.66,2.50
2013-07-07 10:10:00,2,2592,69,1.42,2,2,0,2,2080,3391,436,2466,67,71,2,67,0.45,3.20,0.78,1.15
2013-07-07 10:20:00,2,2678,67,1.77,2,2,0,2,2380,3103,245,2635,67,67,0,67,0.90,2.95,0.56,1.65
2013-07-07 10:30:00,2,4454,63,1.51,2,2,0,2,3757,5105,348,4485,61,67,3,61,0.65,2.55,0.64,1.62
2013-07-07 10:40:00,2,4152,62,0.85,2,2,0,2,2898,5232,736,4377,61,67,2,61,0.10,1.25,0.39,1.05
2013-07-07 10:50:00,2,3341,65,1.78,2,2,0,2,2337,3992,450,3399,61,67,3,67,0.25,3.75,1.22,1.83
2013-07-07 11:00:00,2,2695,67,2.04,2,2,0,2,2233,3563,364,2674,67,67,0,67,0.45,3.90,0.99,1.98
2013-07-07 11:10:00,2,3451,67,1.29,2,2,0,2,3020,4022,304,3395,67,67,0,67,0.20,4.60,1.38,0.60
2013-07-07 11:20:00,2,3004,67,0.73,2,2,0,2,2257,4316,532,2924,67,67,0,67,0.45,1.45,0.29,0.68
2013-07-07 11:30:00,2,3587,66,1.19,2,2,0,2,2735,4914,693,3432,61,67,2,67,0.35,3.30,0.82,1.00
2013-07-07 11:40:00,2,4724,61,0.67,2,2,0,2,4195,5003,255,4752,61,61,0,61,0.05,1.25,0.33,0.62
2013-07-07 11:50:00,2,4304,66,0.10,2,2,0,2,3444,5132,543,4084,61,67,2,67,0.05,0.20,0.06,0.05
2013-07-07 12:00:00,2,3913,67,0.27,2,2,0,2,3174,4302,338,4013,67,67,0,67,0.05,1.30,0.37,0.10
2013-07-07 12:10:00,2,4727,63,0.57,2,2,0,2,4189,5415,364,4704,61,67,3,61,0.20,2.35,0.60,0.40
2013-07-07 12:20:00,2,4216,60,0.97,2,2,0,2,3630,4750,340,4236,52,61,3,61,0.50,1.55,0.30,0.93
2013-07-07 12:30:00,2,4054,51,0.39,2,2,0,2,3556,4841,402,3983,51,52,0,51,0.05,0.85,0.29,0.38
2013-07-07 12:40:00,2,4423,61,0.21,2,2,0,2,3838,4876,323,4466,61,61,0,61,0.00,0.65,0.18,0.20
2013-07-07 12:50:00,2,3469,61,0.69,2,2,0,2,2950,4180,338,3469,61,61,0,61,0.05,0.90,0.23,0.75
2013-07-07 13:00:00,2,2406,66,0.19,2,2,0,2,2221,2944,227,2308,61,67,2,67,0.05,0.50,0.16,0.10
2013-07-07 13:10:00,2,2671,67,0.58,2,2,0,2,2192,3534,352,2614,67,67,0,67,0.30,1.05,0.27,0.42
2013-07-07 13:20:00,2,3310,70,0.13,2,2,0,2,2482,4345,576,3300,67,71,2,71,0.00,0.80,0.23,0.05
2013-07-07 13:30:00,2,3614,71,0.03,2,2,0,2,2696,3922,342,3742,71,71,0,71,0.00,0.05,0.03,0.03
2013-07-07 13:40:00,2,4294,22,0.00,2,2,0,2,3711,5163,417,4234,10,71,24,10,0.00,0.00,0.00,0.00
2013-07-07 13:50:00,2,5449,10,0.00,2,2,0,2,4340,6140,569,5626,10,10,0,10,0.00,0.00,0.00,0.00
2013-07-07 14:00:00,2,4688,10,0.00,2,2,0,2,4207,5110,277,4697,10,10,0,10,0.00,0.00,0.00,0.00
2013-07-07 14:10:00,2,3739,62,0.36,2,2,0,2,2993,4612,440,3640,41,71,11,66,0.00,1.45,0.45,0.12
2013-07-07 14:20:00,2,3851,61,1.04,2,2,0,2,3402,4432,339,3811,61,61,0,61,0.45,2.05,0.40,1.00
2013-07-07 14:30:00,2,3687,61,0.63,2,2,0,2,3246,4113,255,3644,61,61,0,61,0.20,1.35,0.37,0.55
2013-07-07 14:40:00,2,3264,61,0.52,2,2,0,2,2797,3706,313,3236,61,61,0,61,0.00,0.95,0.32,0.55
2013-07-07 14:50:00,2,3448,67,0.06,2,2,0,2,2981,3788,278,3476,61,71,5,71,0.00,0.30,0.10,0.00
2013-07-07 15:00:00,2,3612,40,0.01,2,2,0,2,3115,3919,235,3678,10,71,30,40,0.00,0.10,0.03,0.00
2013-07-07 15:10:00,2,3265,22,0.00,2,2,0,2,2981,3833,280,3202,10,41,15,10,0.00,0.00,0.00,0.00
2013-07-07 15:20:00,2,3496,25,0.01,2,2,0,2,2886,4041,368,3405,10,71,21,10,0.00,0.10,0.03,0.00
2013-07-07 15:30:00,2,3957,53,0.03,2,2,0,2,2984,5220,590,4028,41,71,15,41,0.00,0.05,0.03,0.03
2013-07-07 15:40:00,2,4770,71,0.09,2,2,0,2,3947,5896,682,4574,71,71,0,71,0.00,0.15,0.06,0.10
2013-07-07 15:50:00,2,5417,62,0.43,2,2,0,2,4023,6295,743,5537,61,71,3,61,0.15,0.65,0.15,0.45
2013-07-07 16:00:00,2,4997,61,0.28,2,2,0,2,3950,6056,563,5028,61,61,0,61,0.10,0.50,0.12,0.28
2013-07-07 16:10:00,2,4872,39,0.10,2,2,0,2,3881,5989,731,4718,10,61,16,41,0.00,0.25,0.09,0.08
2013-07-07 16:20:00,2,8375,10,0.00,2,2,0,2,6570,13447,2173,7264,10,10,0,10,0.00,0.00,0.00,0.00
2013-07-07 16:30:00,2,6804,10,0.00,2,2,0,2,5703,7799,569,6740,10,10,0,10,0.00,0.00,0.00,0.00
2013-07-07 16:40:00,2,7613,10,0.00,2,2,0,2,6074,8633,811,7500,10,10,0,10,0.00,0.00,0.00,0.00
2013-07-07 16:50:00,2,6279,10,0.00,2,2,0,2,5342,7056,526,6250,10,10,0,10,0.00,0.00,0.00,0.00
2013-07-07 17:00:00,2,7085,10,0.00,2,2,0,2,5023,9854,1365,6756,10,10,0,10,0.00,0.00,0.00,0.00
2013-07-07 17:10:00,2,11446,10,0.00,2,2,0,2,5484,17410,4422,11370,10,10,0,10,0.00,0.00,0.00,0.00
2013-07-07 17:20:00,2,35408,3,0.00,2,2,0,2,23902,48924,7031,33798,0,10,5,0,0.00,0.00,0.00,0.00
2013-07-07 17:30:00,2,40601,0,0.00,2,2,0,2,33242,50000,5394,39684,0,0,0,0,0.00,0.00,0.00,0.00
2013-07-07 17:40:00,2,49517,0,0.00,2,2,0,2,45400,50000,1374,50000,0,0,0,0,0.00,0.00,0.00,0.00
2013-07-07 17:50:00,2,50000,0,0.00,2,2,0,2,50000,50000,0,50000,0,0,0,0,0.00,0.00,0.00,0.00
2013-07-07 18:00:00,2,50000,0,0.00,2,2,0,2,50000,50000,0,50000,0,0,0,0,0.00,0.00,0.00,0.00
2013-07-07 18:10:00,2,50000,0,0.00,2,2,0,2,50000,50000,0,50000,0,0,0,0,0.00,0.00,0.00,0.00
2013-07-07 18:20:00,2,50000,0,0.00,2,2,0,2,50000,50000,0,50000,0,0,0,0,0.00,0.00,0.00,0.00
2013-07-07 18:30:00,2,50000,0,0.00,2,2,0,2,50000,50000,0,50000,0,0,0,0,0.00,0.00,0.00,0.00
2013-07-07 18:40:00,2,40807,0,0.00,2,2,0,2,17101,50000,11378,47791,0,0,0,0,0.00,0.00,0.00,0.00
2013-07-07 18:50:00,2,14001,0,0.00,2,2,0,2,11148,15658,1297,14300,0,0,0,0,0.00,0.00,0.00,0.00
2013-07-07 19:00:00,2,11476,0,0.00,2,2,0,2,10069,13723,977,11401,0,0,0,0,0.00,0.00,0.00,0.00
2013-07-07 19:10:00,2,8354,2,0.00,2,2,0,2,6607,12796,2103,7352,0,10,4,0,0.00,0.00,0.00,0.00
2013-07-07 19:20:00,2,6100,10,0.00,2,2,0,2,5534,6749,372,6099,10,10,0,10,0.00,0.00,0.00,0.00
2013-07-07 19:30:00,2,5604,10,0.00,2,2,0,2,5186,5886,206,5624,10,10,0,10,0.00,0.00,0.00,0.00
2013-07-07 19:40:00,2,6482,10,0.00,2,2,0,2,5478,7057,417,6504,10,10,0,10,0.00,0.00,0.00,0.00
2013-07-07 19:50:00,2,7197,22,0.01,2,2,0,2,5705,8968,1211,7172,10,41,15,10,0.00,0.10,0.03,0.00
2013-07-07 20:00:00,2,6658,13,0.00,2,2,0,2,4232,8745,1525,6474,10,41,9,10,0.00,0.00,0.00,0.00
2013-07-07 20:10:00,2,5050,19,0.01,2,2,0,2,4226,6163,720,4773,10,41,14,10,0.00,0.05,0.02,0.00
2013-07-07 20:20:00,2,5784,22,0.09,2,2,0,2,4962,6665,544,5854,10,41,15,10,0.00,0.80,0.24,0.00
2013-07-07 20:30:00,2,4201,58,0.55,2,2,0,2,3787,5207,414,4059,52,61,4,61,0.10,1.95,0.51,0.38
2013-07-07 20:40:00,2,4073,61,0.45,2,2,0,2,3833,4346,186,4050,61,61,0,61,0.05,0.80,0.28,0.47
2013-07-07 20:50:00,2,4224,52,1.32,2,2,0,2,3596,5702,626,3964,52,52,0,52,0.80,1.85,0.31,1.33
2013-07-07 21:00:00,2,4698,58,1.32,2,2,0,2,4230,5556,454,4514,52,61,4,61,0.10,3.20,0.96,1.50
2013-07-07 21:10:00,2,4371,61,1.23,2,2,0,2,3877,5103,334,4280,61,61,0,61,0.60,2.10,0.42,1.25
2013-07-07 21:20:00,2,3539,61,0.70,2,2,0,2,2809,4087,337,3566,61,61,0,61,0.30,1.30,0.35,0.62
2013-07-07 21:30:00,2,2971,61,1.10,2,2,0,2,2630,3498,225,2938,61,61,0,61,0.55,1.60,0.39,1.23
2013-07-07 21:40:00,2,3578,61,0.93,2,2,0,2,2901,4080,372,3686,61,61,0,61,0.15,3.05,0.76,0.80
2013-07-07 21:50:00,2,3755,61,1.25,2,2,0,2,2991,4494,422,3712,61,61,0,61,0.30,2.20,0.53,1.15
2013-07-07 22:00:00,2,3505,61,1.71,2,2,0,2,2993,3992,342,3516,61,61,0,61,0.85,2.85,0.67,1.65
2013-07-07 22:10:00,2,3638,62,0.96,2,2,0,2,3202,4023,266,3641,61,67,2,61,0.20,1.85,0.56,1.00
2013-07-07 22:20:00,2,4107,63,1.57,2,2,0,2,3688,4720,295,4142,61,67,3,61,0.45,4.05,0.92,1.27
2013-07-07 22:30:00,2,4789,61,1.54,2,2,0,2,3736,6006,647,4773,61,61,0,61,0.70,4.40,1.00,1.28
2013-07-07 22:40:00,2,4958,61,2.92,2,2,0,2,3686,5454,517,4970,61,61,0,61,0.85,6.60,1.87,2.38
2013-07-07 22:50:00,2,5559,61,1.33,2,2,0,2,4555,7104,831,5247,61,61,0,61,0.70,3.20,0.71,1.18
2013-07-07 23:00:00,2,7085,61,0.47,2,2,0,2,5181,8893,1069,7060,61,61,0,61,0.25,0.95,0.19,0.45
2013-07-07 23:10:00,2,11004,39,0.16,2,2,0,2,8032,16536,2443,10578,0,61,26,51,0.00,0.60,0.21,0.03
2013-07-07 23:20:00,2,8119,44,0.34,2,2,0,2,6714,12462,1609,7573,0,61,22,51,0.00,0.65,0.22,0.38
2013-07-07 23:30:00,2,7982,54,0.21,2,2,0,2,5609,10886,1953,7789,41,61,8,56,0.00,0.60,0.17,0.17
2013-07-07 23:40:00,2,5376,48,0.52,2,2,0,2,4421,7037,870,5082,41,52,5,51,0.05,1.25,0.38,0.45
2013-07-07 23:50:00,2,6148,61,0.42,2,2,0,2,5238,7307,726,6126,61,61,0,61,0.05,1.65,0.43,0.25
